,,Stat5,,Stat1,,Stat2,,Stat3,,Stat4,,Wind1,,Wind1,
time,status,PA1M_AVG,status,PR1M_SUM,status,RH1M_AVG,status,SR1M_AVG,status,TA1M_AVG,status,W1dAve1m,status,W1sAve1m,
2001-07-11, 00:00:00,VALID,919.006,VALID,0,VALID,96.8225,VALID,0.0169808,VALID,20.471,VALID,31,VALID,0.832137,
2001-07-11, 00:01:00,VALID,919.004,VALID,0,VALID,96.7221,VALID,0.0169808,VALID,20.4516,VALID,32,VALID,0.784455,
2001-07-11, 00:02:00,VALID,919.018,VALID,0,VALID,96.6051,VALID,0.0339617,VALID,20.4265,VALID,27,VALID,0.760617,
2001-07-11, 00:03:00,VALID,919.05,VALID,0,VALID,96.75,VALID,0.0169808,VALID,20.419,VALID,20,VALID,0.746711,
2001-07-11, 00:04:00,VALID,919.083,VALID,0,VALID,96.7386,VALID,0,VALID,20.4131,VALID,15,VALID,0.769531,
2001-07-11, 00:05:00,VALID,919.098,VALID,0,VALID,96.6241,VALID,0.0169808,VALID,20.3934,VALID,14,VALID,0.537212,
2001-07-11, 00:06:00,VALID,919.124,VALID,0,VALID,96.6636,VALID,0,VALID,20.3706,VALID,12,VALID,0.756123,
2001-07-11, 00:07:00,VALID,919.132,VALID,0,VALID,96.731,VALID,0.0339617,VALID,20.3676,VALID,11,VALID,0.922286,
2001-07-11, 00:08:00,VALID,919.138,VALID,0,VALID,96.9662,VALID,0.0169808,VALID,20.4034,VALID,10,VALID,0.78418,
2001-07-11, 00:09:00,VALID,919.136,VALID,0,VALID,96.8518,VALID,0.0169808,VALID,20.4034,VALID,18,VALID,0.661184,
2001-07-11, 00:10:00,VALID,919.121,VALID,0,VALID,96.7805,VALID,0,VALID,20.3875,VALID,32,VALID,0.683093,
2001-07-11, 00:11:00,VALID,919.124,VALID,0,VALID,96.8696,VALID,0,VALID,20.4039,VALID,37,VALID,0.619243,
2001-07-11, 00:12:00,VALID,919.104,VALID,0,VALID,96.9242,VALID,0,VALID,20.4131,VALID,38,VALID,0.560045,
2001-07-11, 00:13:00,VALID,919.104,VALID,0,VALID,96.9802,VALID,0,VALID,20.423,VALID,37,VALID,0.583929,
2001-07-11, 00:14:00,VALID,919.099,VALID,0,VALID,96.9255,VALID,0.0169808,VALID,20.423,VALID,35,VALID,0.514597,
2001-07-11, 00:15:00,VALID,919.087,VALID,0,VALID,96.7259,VALID,0.0169808,VALID,20.4036,VALID,25,VALID,0.448269,
2001-07-11, 00:16:00,VALID,919.077,VALID,0,VALID,96.6954,VALID,0.0169808,VALID,20.3743,VALID,14,VALID,0.431949,
2001-07-11, 00:17:00,VALID,919.059,VALID,0,VALID,96.6865,VALID,0.0339617,VALID,20.3517,VALID,9,VALID,0.413061,
2001-07-11, 00:18:00,VALID,919.055,VALID,0,VALID,96.7971,VALID,0,VALID,20.3358,VALID,356,VALID,0.571652,
2001-07-11, 00:19:00,VALID,919.039,VALID,0,VALID,96.9039,VALID,0.0509425,VALID,20.3164,VALID,355,VALID,0.537891,
2001-07-11, 00:20:00,VALID,919.02,VALID,0,VALID,97.04,VALID,-0.0169808,VALID,20.3199,VALID,353,VALID,0.732537,
2001-07-11, 00:21:00,VALID,919.02,VALID,0,VALID,97.1417,VALID,0.0169808,VALID,20.3132,VALID,13,VALID,0.593961,
2001-07-11, 00:22:00,VALID,919.026,VALID,0,VALID,97.2777,VALID,-0.0169808,VALID,20.3366,VALID,297,VALID,0.595818,
2001-07-11, 00:23:00,VALID,919.021,VALID,0,VALID,97.1175,VALID,0,VALID,20.307,VALID,337,VALID,0.258235,
2001-07-11, 00:24:00,VALID,919.018,VALID,0,VALID,96.8212,VALID,0,VALID,20.2623,VALID,251,VALID,0.105469,
2001-07-11, 00:25:00,VALID,919.014,VALID,0,VALID,96.8619,VALID,0,VALID,20.2523,VALID,290,VALID,0.244992,
2001-07-11, 00:26:00,VALID,919.013,VALID,0,VALID,96.9865,VALID,0,VALID,20.2424,VALID,358,VALID,0.50625,
2001-07-11, 00:27:00,VALID,918.998,VALID,0,VALID,97.0743,VALID,-0.0169808,VALID,20.2625,VALID,14,VALID,0.588049,
2001-07-11, 00:28:00,VALID,918.992,VALID,0,VALID,96.9738,VALID,-0.0509425,VALID,20.2431,VALID,1,VALID,0.340763,
2001-07-11, 00:29:00,VALID,918.982,VALID,0,VALID,96.8645,VALID,-0.0509425,VALID,20.2141,VALID,357,VALID,0.382601,
2001-07-11, 00:30:00,VALID,918.974,VALID,0,VALID,97.0234,VALID,-0.0679233,VALID,20.2044,VALID,356,VALID,0.352385,
2001-07-11, 00:31:00,VALID,918.964,VALID,0,VALID,97.3515,VALID,-0.0339617,VALID,20.2561,VALID,356,VALID,0.22389,
2001-07-11, 00:32:00,VALID,918.957,VALID,0,VALID,97.4609,VALID,-0.0509425,VALID,20.2916,VALID,356,VALID,0.345536,
2001-07-11, 00:33:00,VALID,918.934,VALID,0,VALID,97.3833,VALID,-0.0679233,VALID,20.272,VALID,342,VALID,0.241343,
2001-07-11, 00:34:00,VALID,918.916,VALID,0,VALID,97.1417,VALID,-0.0849042,VALID,20.2205,VALID,320,VALID,0.275965,
2001-07-11, 00:35:00,VALID,918.909,VALID,0,VALID,97.4647,VALID,-0.0339617,VALID,20.2817,VALID,341,VALID,0.334248,
2001-07-11, 00:36:00,VALID,918.878,VALID,0,VALID,96.6063,VALID,-0.0679233,VALID,20.2046,VALID,5,VALID,0.314209,
2001-07-11, 00:37:00,VALID,918.868,VALID,0,VALID,96.984,VALID,-0.0679233,VALID,20.1885,VALID,336,VALID,0.340144,
2001-07-11, 00:38:00,VALID,918.868,VALID,0,VALID,97.2409,VALID,-0.0339617,VALID,20.2173,VALID,336,VALID,0.335491,
2001-07-11, 00:39:00,VALID,918.856,VALID,0,VALID,97.5321,VALID,-0.0679233,VALID,20.2827,VALID,335,VALID,0.114654,
2001-07-11, 00:40:00,VALID,918.848,VALID,0,VALID,97.2663,VALID,-0.0169808,VALID,20.2593,VALID,335,VALID,0.0726103,
2001-07-11, 00:41:00,VALID,918.834,VALID,0,VALID,96.9103,VALID,-0.0169808,VALID,20.2009,VALID,350,VALID,0.317568,
2001-07-11, 00:42:00,VALID,918.822,VALID,0,VALID,97.0896,VALID,-0.0169808,VALID,20.1974,VALID,6,VALID,0.390419,
2001-07-11, 00:43:00,VALID,918.802,VALID,0,VALID,97.3591,VALID,-0.0169808,VALID,20.217,VALID,5,VALID,0.416735,
2001-07-11, 00:44:00,VALID,918.778,VALID,0,VALID,97.3337,VALID,-0.0339617,VALID,20.2165,VALID,7,VALID,0.569196,
2001-07-11, 00:45:00,VALID,918.751,VALID,0,VALID,97.2129,VALID,-0.0169808,VALID,20.1882,VALID,11,VALID,0.776605,
2001-07-11, 00:46:00,VALID,918.742,VALID,0,VALID,97.232,VALID,-0.0169808,VALID,20.1691,VALID,10,VALID,0.844669,
2001-07-11, 00:47:00,VALID,918.706,VALID,0,VALID,97.2154,VALID,-0.0509425,VALID,20.1169,VALID,7,VALID,0.676943,
2001-07-11, 00:48:00,VALID,918.698,VALID,0,VALID,97.354,VALID,-0.0849042,VALID,20.104,VALID,357,VALID,0.577881,
2001-07-11, 00:49:00,VALID,918.718,VALID,0,VALID,97.5461,VALID,-0.0679233,VALID,20.1336,VALID,349,VALID,0.671875,
2001-07-11, 00:50:00,VALID,918.699,VALID,0,VALID,97.4977,VALID,-0.0339617,VALID,20.1303,VALID,349,VALID,0.566071,
2001-07-11, 00:51:00,VALID,918.685,VALID,0,VALID,97.7025,VALID,-0.0339617,VALID,20.1562,VALID,307,VALID,0.450802,
2001-07-11, 00:52:00,VALID,918.701,VALID,0,VALID,97.883,VALID,-0.0509425,VALID,20.2068,VALID,292,VALID,0.154871,
2001-07-11, 00:53:00,VALID,918.711,VALID,0,VALID,97.644,VALID,-0.0339617,VALID,20.1592,VALID,277,VALID,0.20228,
2001-07-11, 00:54:00,VALID,918.709,VALID,0,VALID,97.6732,VALID,-0.0169808,VALID,20.1594,VALID,251,VALID,0.360814,
2001-07-11, 00:55:00,VALID,918.693,VALID,0,VALID,97.9657,VALID,-0.0509425,VALID,20.2106,VALID,254,VALID,0.368421,
2001-07-11, 00:56:00,VALID,918.688,VALID,0,VALID,98.0687,VALID,-0.0339617,VALID,20.2655,VALID,251,VALID,0.0955357,
2001-07-11, 00:57:00,VALID,918.677,VALID,0,VALID,98.0369,VALID,-0.0169808,VALID,20.2692,VALID,251,VALID,0,
2001-07-11, 00:58:00,VALID,918.663,VALID,0,VALID,97.9695,VALID,-0.0339617,VALID,20.266,VALID,251,VALID,0,
2001-07-11, 00:59:00,VALID,918.652,VALID,0,VALID,97.7279,VALID,-0.0339617,VALID,20.2039,VALID,251,VALID,0,
2001-07-11, 01:00:00,VALID,918.66,VALID,0,VALID,97.658,VALID,-0.0169808,VALID,20.1818,VALID,251,VALID,0,
2001-07-11, 01:01:00,VALID,918.653,VALID,0,VALID,97.5944,VALID,-0.0679233,VALID,20.1554,VALID,270,VALID,0.0663061,
2001-07-11, 01:02:00,VALID,918.666,VALID,0,VALID,97.349,VALID,-0.0679233,VALID,20.1236,VALID,286,VALID,0.182366,
2001-07-11, 01:03:00,VALID,918.637,VALID,0,VALID,96.4868,VALID,-0.0679233,VALID,19.9718,VALID,287,VALID,0.24641,
2001-07-11, 01:04:00,VALID,918.629,VALID,0,VALID,96.2706,VALID,-0.0849042,VALID,19.8461,VALID,293,VALID,0.253906,
2001-07-11, 01:05:00,VALID,918.601,VALID,0,VALID,96.2643,VALID,-0.0679233,VALID,19.7748,VALID,309,VALID,0.194679,
2001-07-11, 01:06:00,VALID,918.576,VALID,0,VALID,96.6191,VALID,-0.0679233,VALID,19.7457,VALID,316,VALID,0.0923109,
2001-07-11, 01:07:00,VALID,918.541,VALID,0,VALID,97.3286,VALID,-0.0849042,VALID,19.8145,VALID,7,VALID,0.464021,
2001-07-11, 01:08:00,VALID,918.516,VALID,0,VALID,97.7457,VALID,-0.0509425,VALID,19.8819,VALID,13,VALID,0.381027,
2001-07-11, 01:09:00,VALID,918.504,VALID,0,VALID,98.0013,VALID,-0.0849042,VALID,19.9467,VALID,26,VALID,0.315667,
2001-07-11, 01:10:00,VALID,918.487,VALID,0,VALID,98.1463,VALID,-0.0339617,VALID,19.9912,VALID,35,VALID,0.211167,
2001-07-11, 01:11:00,VALID,918.47,VALID,0,VALID,98.0534,VALID,-0.0509425,VALID,20.0041,VALID,35,VALID,0.108742,
2001-07-11, 01:12:00,VALID,918.464,VALID,0,VALID,97.8322,VALID,-0.0509425,VALID,19.985,VALID,35,VALID,0,
2001-07-11, 01:13:00,VALID,918.459,VALID,0,VALID,97.6313,VALID,-0.0679233,VALID,19.9467,VALID,35,VALID,0,
2001-07-11, 01:14:00,VALID,918.463,VALID,0,VALID,97.4469,VALID,-0.0169808,VALID,19.8978,VALID,35,VALID,0,
2001-07-11, 01:15:00,VALID,918.456,VALID,0,VALID,97.3808,VALID,-0.0679233,VALID,19.8622,VALID,35,VALID,0,
2001-07-11, 01:16:00,VALID,918.449,VALID,0,VALID,97.2599,VALID,-0.0509425,VALID,19.8334,VALID,35,VALID,0,
2001-07-11, 01:17:00,VALID,918.439,VALID,0,VALID,97.2867,VALID,-0.0679233,VALID,19.8081,VALID,35,VALID,0.168919,
2001-07-11, 01:18:00,VALID,918.419,VALID,0,VALID,97.2943,VALID,-0.0849042,VALID,19.8013,VALID,128,VALID,0.505345,
2001-07-11, 01:19:00,VALID,918.423,VALID,0,VALID,97.0705,VALID,-0.0679233,VALID,19.7395,VALID,163,VALID,0.517475,
2001-07-11, 01:20:00,VALID,918.423,VALID,0,VALID,97.1468,VALID,-0.0339617,VALID,19.7074,VALID,176,VALID,0.46317,
2001-07-11, 01:21:00,VALID,918.425,VALID,0,VALID,97.2638,VALID,-0.0509425,VALID,19.6721,VALID,177,VALID,0.515203,
2001-07-11, 01:22:00,VALID,918.419,VALID,0,VALID,97.2739,VALID,-0.0679233,VALID,19.6426,VALID,177,VALID,0.558594,
2001-07-11, 01:23:00,VALID,918.408,VALID,0,VALID,97.4151,VALID,-0.0679233,VALID,19.6232,VALID,177,VALID,0.518159,
2001-07-11, 01:24:00,VALID,918.408,VALID,0,VALID,97.5702,VALID,-0.0849042,VALID,19.6272,VALID,178,VALID,0.423828,
2001-07-11, 01:25:00,VALID,918.387,VALID,0,VALID,97.7788,VALID,-0.0679233,VALID,19.6466,VALID,178,VALID,0.39984,
2001-07-11, 01:26:00,VALID,918.39,VALID,0,VALID,97.9873,VALID,-0.101885,VALID,19.6657,VALID,178,VALID,0.280357,
2001-07-11, 01:27:00,VALID,918.395,VALID,0,VALID,98.0903,VALID,-0.0169808,VALID,19.691,VALID,178,VALID,0.232475,
2001-07-11, 01:28:00,VALID,918.407,VALID,0,VALID,98.0827,VALID,0.0169808,VALID,19.7032,VALID,178,VALID,0.115119,
2001-07-11, 01:29:00,VALID,918.42,VALID,0,VALID,98.1297,VALID,0.0169808,VALID,19.7032,VALID,178,VALID,0.0865709,
2001-07-11, 01:30:00,VALID,918.433,VALID,0,VALID,98.1628,VALID,0.0509425,VALID,19.7127,VALID,178,VALID,0.0234375,
2001-07-11, 01:31:00,VALID,918.427,VALID,0,VALID,98.0941,VALID,0.0169808,VALID,19.6866,VALID,207,VALID,0.26912,
2001-07-11, 01:32:00,VALID,918.432,VALID,0,VALID,97.9008,VALID,0.0169808,VALID,19.6227,VALID,250,VALID,0.324777,
2001-07-11, 01:33:00,VALID,918.425,VALID,0,VALID,98.1119,VALID,0.0339617,VALID,19.6642,VALID,268,VALID,0.330448,
2001-07-11, 01:34:00,VALID,918.421,VALID,0,VALID,98.2264,VALID,0.0509425,VALID,19.7127,VALID,272,VALID,0.100643,
2001-07-11, 01:35:00,VALID,918.413,VALID,0,VALID,98.0064,VALID,0.0339617,VALID,19.7,VALID,272,VALID,0,
2001-07-11, 01:36:00,VALID,918.4,VALID,0,VALID,98.103,VALID,0.0509425,VALID,19.6741,VALID,272,VALID,0,
2001-07-11, 01:37:00,VALID,918.399,VALID,0,VALID,98.1831,VALID,0.0339617,VALID,19.6836,VALID,272,VALID,0.0380609,
2001-07-11, 01:38:00,VALID,918.39,VALID,0,VALID,97.8907,VALID,0.0679233,VALID,19.6672,VALID,244,VALID,0.172321,
2001-07-11, 01:39:00,VALID,918.392,VALID,0,VALID,97.5639,VALID,0.0509425,VALID,19.5733,VALID,141,VALID,0.23522,
2001-07-11, 01:40:00,VALID,918.378,VALID,0,VALID,98.2302,VALID,0.0679233,VALID,19.6381,VALID,46,VALID,0.288833,
2001-07-11, 01:41:00,VALID,918.37,VALID,0,VALID,98.0458,VALID,0.0849042,VALID,19.6898,VALID,315,VALID,0.560177,
2001-07-11, 01:42:00,VALID,918.378,VALID,0,VALID,98.5392,VALID,0.0339617,VALID,19.936,VALID,321,VALID,0.336554,
2001-07-11, 01:43:00,VALID,918.365,VALID,0,VALID,98.5862,VALID,-0.0509425,VALID,20.0531,VALID,359,VALID,0.225329,
2001-07-11, 01:44:00,VALID,918.365,VALID,0,VALID,97.5397,VALID,-0.0509425,VALID,19.9206,VALID,337,VALID,0.466295,
2001-07-11, 01:45:00,VALID,918.369,VALID,0,VALID,97.7241,VALID,-0.0509425,VALID,19.9402,VALID,293,VALID,0.732686,
2001-07-11, 01:46:00,VALID,918.353,VALID,0,VALID,97.8309,VALID,-0.0339617,VALID,19.9755,VALID,318,VALID,0.286765,
2001-07-11, 01:47:00,VALID,918.359,VALID,0,VALID,97.1201,VALID,-0.0339617,VALID,19.8853,VALID,331,VALID,0.164274,
2001-07-11, 01:48:00,VALID,918.354,VALID,0,VALID,97.4558,VALID,-0.0339617,VALID,19.9209,VALID,317,VALID,0,
2001-07-11, 01:49:00,VALID,918.348,VALID,0,VALID,96.9726,VALID,-0.0679233,VALID,19.8692,VALID,317,VALID,0,
2001-07-11, 01:50:00,VALID,918.35,VALID,0,VALID,96.5987,VALID,-0.0509425,VALID,19.7566,VALID,317,VALID,0,
2001-07-11, 01:51:00,VALID,918.331,VALID,0,VALID,97.0361,VALID,-0.0679233,VALID,19.7658,VALID,317,VALID,0,
2001-07-11, 01:52:00,VALID,918.322,VALID,0,VALID,97.1035,VALID,-0.0679233,VALID,19.7561,VALID,317,VALID,0,
2001-07-11, 01:53:00,VALID,918.301,VALID,0,VALID,97.4596,VALID,-0.0339617,VALID,19.815,VALID,317,VALID,0,
2001-07-11, 01:54:00,VALID,918.298,VALID,0,VALID,97.2447,VALID,-0.0509425,VALID,19.7589,VALID,322,VALID,0.0361842,
2001-07-11, 01:55:00,VALID,918.28,VALID,0,VALID,96.7984,VALID,-0.0509425,VALID,19.6654,VALID,358,VALID,0.373972,
2001-07-11, 01:56:00,VALID,918.264,VALID,0,VALID,96.6445,VALID,-0.0339617,VALID,19.6016,VALID,358,VALID,0.160491,
2001-07-11, 01:57:00,VALID,918.265,VALID,0,VALID,97.1188,VALID,-0.0169808,VALID,19.5837,VALID,358,VALID,0.235008,
2001-07-11, 01:58:00,VALID,918.28,VALID,0,VALID,97.3095,VALID,0.0339617,VALID,19.5867,VALID,358,VALID,0,
2001-07-11, 01:59:00,VALID,918.285,VALID,0,VALID,97.4265,VALID,0.0339617,VALID,19.5971,VALID,358,VALID,0.000211149,
2001-07-11, 02:00:00,VALID,918.294,VALID,0,VALID,97.5155,VALID,0.0509425,VALID,19.584,VALID,358,VALID,0.124268,
2001-07-11, 02:01:00,VALID,918.294,VALID,0,VALID,97.6084,VALID,0.0679233,VALID,19.5907,VALID,358,VALID,0.0494792,
2001-07-11, 02:02:00,VALID,918.297,VALID,0,VALID,97.7368,VALID,0.0679233,VALID,19.5994,VALID,358,VALID,0.0821429,
2001-07-11, 02:03:00,VALID,918.299,VALID,0,VALID,97.8525,VALID,0.0679233,VALID,19.6128,VALID,358,VALID,0.0204814,
2001-07-11, 02:04:00,VALID,918.286,VALID,0,VALID,97.8156,VALID,0.0509425,VALID,19.6058,VALID,359,VALID,0.116728,
2001-07-11, 02:05:00,VALID,918.247,VALID,0,VALID,97.8868,VALID,0.0339617,VALID,19.616,VALID,359,VALID,0.173109,
2001-07-11, 02:06:00,VALID,918.247,VALID,0,VALID,97.9492,VALID,0.0509425,VALID,19.6225,VALID,359,VALID,0.215255,
2001-07-11, 02:07:00,VALID,918.21,VALID,0,VALID,97.9987,VALID,0.0509425,VALID,19.6289,VALID,9,VALID,0.282484,
2001-07-11, 02:08:00,VALID,918.195,VALID,0,VALID,98.0038,VALID,0.0339617,VALID,19.6227,VALID,33,VALID,0.288393,
2001-07-11, 02:09:00,VALID,918.176,VALID,0,VALID,98.1552,VALID,0.0679233,VALID,19.6488,VALID,32,VALID,0.485431,
2001-07-11, 02:10:00,VALID,918.174,VALID,0,VALID,97.0743,VALID,0.0339617,VALID,19.4739,VALID,23,VALID,0.633502,
2001-07-11, 02:11:00,VALID,918.178,VALID,0,VALID,97.3502,VALID,0.0169808,VALID,19.3867,VALID,30,VALID,0.438345,
2001-07-11, 02:12:00,VALID,918.19,VALID,0,VALID,97.6351,VALID,-0.0169808,VALID,19.4001,VALID,30,VALID,0.220703,
2001-07-11, 02:13:00,VALID,918.177,VALID,0,VALID,97.644,VALID,-0.0509425,VALID,19.3815,VALID,30,VALID,0.193109,
2001-07-11, 02:14:00,VALID,918.182,VALID,0,VALID,97.7457,VALID,-0.0339617,VALID,19.3745,VALID,36,VALID,0.465179,
2001-07-11, 02:15:00,VALID,917.732,VALID,0,VALID,97.6147,VALID,-0.0169808,VALID,19.3427,VALID,39,VALID,0.542863,
2001-07-11, 02:16:00,VALID,918.153,VALID,0,VALID,97.2892,VALID,-0.0509425,VALID,19.2684,VALID,47,VALID,0.630055,
2001-07-11, 02:17:00,VALID,918.131,VALID,0,VALID,97.7343,VALID,-0.0339617,VALID,19.2784,VALID,48,VALID,0.716216,
2001-07-11, 02:18:00,VALID,918.123,VALID,0,VALID,97.5867,VALID,-0.0679233,VALID,19.259,VALID,42,VALID,0.702508,
2001-07-11, 02:19:00,VALID,918.128,VALID,0,VALID,97.3413,VALID,-0.0169808,VALID,19.1812,VALID,38,VALID,0.526933,
2001-07-11, 02:20:00,VALID,918.111,VALID,0,VALID,97.5753,VALID,-0.0339617,VALID,19.1914,VALID,38,VALID,0.360491,
2001-07-11, 02:21:00,VALID,918.109,VALID,0,VALID,97.9059,VALID,-0.0509425,VALID,19.1944,VALID,38,VALID,0.360431,
2001-07-11, 02:22:00,VALID,918.083,VALID,0,VALID,98.0916,VALID,-0.0339617,VALID,19.2331,VALID,38,VALID,0.238051,
2001-07-11, 02:23:00,VALID,918.08,VALID,0,VALID,98.0458,VALID,-0.0679233,VALID,19.2398,VALID,38,VALID,0.0783361,
2001-07-11, 02:24:00,VALID,918.085,VALID,0,VALID,98.0229,VALID,-0.0679233,VALID,19.2046,VALID,38,VALID,0.0126953,
2001-07-11, 02:25:00,VALID,918.064,VALID,0,VALID,98.1348,VALID,-0.0509425,VALID,19.2013,VALID,38,VALID,0.0971555,
2001-07-11, 02:26:00,VALID,918.059,VALID,0,VALID,98.1552,VALID,-0.0849042,VALID,19.2013,VALID,38,VALID,0.0845982,
2001-07-11, 02:27:00,VALID,918.052,VALID,0,VALID,98.2925,VALID,-0.0509425,VALID,19.2033,VALID,38,VALID,0.247044,
2001-07-11, 02:28:00,VALID,918.053,VALID,0,VALID,98.3942,VALID,0.0679233,VALID,19.2384,VALID,40,VALID,0.284467,
2001-07-11, 02:29:00,VALID,918.038,VALID,0,VALID,98.3662,VALID,0.0679233,VALID,19.2515,VALID,53,VALID,0.47234,
2001-07-11, 02:30:00,VALID,918.029,VALID,0,VALID,98.0064,VALID,0.0679233,VALID,19.138,VALID,53,VALID,0.510691,
2001-07-11, 02:31:00,VALID,917.992,VALID,0,VALID,98.0051,VALID,0.0509425,VALID,19.0896,VALID,53,VALID,0.332854,
2001-07-11, 02:32:00,VALID,917.993,VALID,0,VALID,97.7215,VALID,0.0339617,VALID,18.9962,VALID,44,VALID,0.21183,
2001-07-11, 02:33:00,VALID,917.981,VALID,0,VALID,97.9441,VALID,0.0679233,VALID,18.9959,VALID,352,VALID,0.582981,
2001-07-11, 02:34:00,VALID,917.972,VALID,0,VALID,98.3039,VALID,0.101885,VALID,19.0836,VALID,5,VALID,0.585708,
2001-07-11, 02:35:00,VALID,917.971,VALID,0,VALID,98.3128,VALID,0.0679233,VALID,19.0933,VALID,8,VALID,0.729519,
2001-07-11, 02:36:00,VALID,917.969,VALID,0,VALID,98.3459,VALID,0.0509425,VALID,19.1028,VALID,7,VALID,0.744385,
2001-07-11, 02:37:00,VALID,917.961,VALID,0,VALID,98.454,VALID,0.0849042,VALID,19.1283,VALID,9,VALID,0.651843,
2001-07-11, 02:38:00,VALID,917.944,VALID,0,VALID,98.4158,VALID,0.0509425,VALID,19.1388,VALID,10,VALID,0.730357,
2001-07-11, 02:39:00,VALID,917.918,VALID,0,VALID,98.4514,VALID,0.0509425,VALID,19.1579,VALID,7,VALID,0.706503,
2001-07-11, 02:40:00,VALID,917.89,VALID,0,VALID,98.398,VALID,0,VALID,19.135,VALID,12,VALID,0.741958,
2001-07-11, 02:41:00,VALID,917.853,VALID,0,VALID,98.4057,VALID,0.0339617,VALID,19.1544,VALID,10,VALID,0.844172,
2001-07-11, 02:42:00,VALID,917.834,VALID,0,VALID,98.454,VALID,-0.0339617,VALID,19.1778,VALID,6,VALID,0.827919,
2001-07-11, 02:43:00,VALID,917.804,VALID,0,VALID,98.3929,VALID,-0.0849042,VALID,19.1819,VALID,358,VALID,0.560033,
2001-07-11, 02:44:00,VALID,917.788,VALID,0,VALID,98.3052,VALID,-0.0679233,VALID,19.1852,VALID,343,VALID,0.497991,
2001-07-11, 02:45:00,VALID,917.793,VALID,0,VALID,98.3739,VALID,-0.0339617,VALID,19.2306,VALID,300,VALID,0.519215,
2001-07-11, 02:46:00,VALID,917.791,VALID,0,VALID,98.3866,VALID,-0.0679233,VALID,19.253,VALID,269,VALID,0.491958,
2001-07-11, 02:47:00,VALID,917.791,VALID,0,VALID,98.4298,VALID,-0.0509425,VALID,19.2853,VALID,267,VALID,0.588894,
2001-07-11, 02:48:00,VALID,917.786,VALID,0,VALID,98.501,VALID,-0.0509425,VALID,19.3072,VALID,259,VALID,0.399414,
2001-07-11, 02:49:00,VALID,917.776,VALID,0,VALID,98.5061,VALID,-0.0339617,VALID,19.3303,VALID,261,VALID,0.421274,
2001-07-11, 02:50:00,VALID,917.76,VALID,0,VALID,98.5239,VALID,-0.0339617,VALID,19.327,VALID,248,VALID,0.388839,
2001-07-11, 02:51:00,VALID,917.738,VALID,0,VALID,98.487,VALID,-0.0509425,VALID,19.3114,VALID,247,VALID,0.14147,
2001-07-11, 02:52:00,VALID,917.724,VALID,0,VALID,98.3205,VALID,-0.0509425,VALID,19.2336,VALID,247,VALID,0.00344669,
2001-07-11, 02:53:00,VALID,917.728,VALID,0,VALID,98.3319,VALID,-0.0509425,VALID,19.1981,VALID,247,VALID,0,
2001-07-11, 02:54:00,VALID,917.73,VALID,0,VALID,98.2607,VALID,-0.0339617,VALID,19.166,VALID,247,VALID,0,
2001-07-11, 02:55:00,VALID,917.711,VALID,0,VALID,98.262,VALID,-0.0679233,VALID,19.1206,VALID,247,VALID,0,
2001-07-11, 02:56:00,VALID,917.72,VALID,0,VALID,98.3421,VALID,-0.0679233,VALID,19.0918,VALID,247,VALID,0,
2001-07-11, 02:57:00,VALID,917.715,VALID,0,VALID,98.2709,VALID,-0.0169808,VALID,19.0684,VALID,247,VALID,0.0181588,
2001-07-11, 02:58:00,VALID,917.709,VALID,0,VALID,98.2531,VALID,0.0679233,VALID,19.0252,VALID,247,VALID,0.00827206,
2001-07-11, 02:59:00,VALID,917.687,VALID,0,VALID,98.3039,VALID,0.0509425,VALID,19.019,VALID,247,VALID,0,
2001-07-11, 03:00:00,VALID,917.661,VALID,0,VALID,98.3281,VALID,0.0849042,VALID,19.0059,VALID,247,VALID,0,
2001-07-11, 03:01:00,VALID,917.649,VALID,0,VALID,98.4667,VALID,0.0339617,VALID,19.0223,VALID,247,VALID,0,
2001-07-11, 03:02:00,VALID,917.632,VALID,0,VALID,98.6053,VALID,0.0849042,VALID,19.0806,VALID,247,VALID,0.00446429,
2001-07-11, 03:03:00,VALID,917.624,VALID,0,VALID,98.6015,VALID,0.0509425,VALID,19.103,VALID,247,VALID,0,
2001-07-11, 03:04:00,VALID,917.627,VALID,0,VALID,98.6371,VALID,0.0509425,VALID,19.1194,VALID,247,VALID,0.13511,
2001-07-11, 03:05:00,VALID,917.632,VALID,0,VALID,98.6078,VALID,0.0509425,VALID,19.1258,VALID,247,VALID,0.26647,
2001-07-11, 03:06:00,VALID,917.646,VALID,0,VALID,98.5227,VALID,0.0339617,VALID,19.0935,VALID,247,VALID,0.0518092,
2001-07-11, 03:07:00,VALID,917.656,VALID,0,VALID,98.4565,VALID,0.0849042,VALID,19.0416,VALID,247,VALID,0,
2001-07-11, 03:08:00,VALID,917.672,VALID,0,VALID,98.4947,VALID,0.0509425,VALID,19.0183,VALID,247,VALID,0,
2001-07-11, 03:09:00,VALID,917.687,VALID,0,VALID,98.6396,VALID,0.0849042,VALID,19.0511,VALID,247,VALID,0.00105574,
2001-07-11, 03:10:00,VALID,917.685,VALID,0,VALID,98.7782,VALID,0.101885,VALID,19.1159,VALID,247,VALID,0,
2001-07-11, 03:11:00,VALID,917.661,VALID,0,VALID,98.5608,VALID,0.0509425,VALID,19.1129,VALID,176,VALID,0.294975,
2001-07-11, 03:12:00,VALID,917.64,VALID,0,VALID,98.0356,VALID,-0.0169808,VALID,18.9457,VALID,65,VALID,0.623535,
2001-07-11, 03:13:00,VALID,917.619,VALID,0,VALID,98.3281,VALID,-0.0169808,VALID,18.9236,VALID,65,VALID,0.592348,
2001-07-11, 03:14:00,VALID,917.598,VALID,0,VALID,98.4438,VALID,-0.0849042,VALID,18.9586,VALID,64,VALID,0.473661,
2001-07-11, 03:15:00,VALID,917.598,VALID,0,VALID,98.3751,VALID,-0.0509425,VALID,18.9497,VALID,64,VALID,0.335938,
2001-07-11, 03:16:00,VALID,917.598,VALID,0,VALID,98.4298,VALID,-0.0509425,VALID,18.979,VALID,64,VALID,0.189568,
2001-07-11, 03:17:00,VALID,917.6,VALID,0,VALID,98.4031,VALID,-0.0509425,VALID,18.9817,VALID,64,VALID,0.0139358,
2001-07-11, 03:18:00,VALID,917.617,VALID,0,VALID,98.3014,VALID,-0.0509425,VALID,18.9623,VALID,64,VALID,0,
2001-07-11, 03:19:00,VALID,917.614,VALID,0,VALID,98.2111,VALID,-0.0679233,VALID,18.9365,VALID,64,VALID,0,
2001-07-11, 03:20:00,VALID,917.61,VALID,0,VALID,98.103,VALID,-0.0679233,VALID,18.8977,VALID,64,VALID,0,
2001-07-11, 03:21:00,VALID,917.599,VALID,0,VALID,98.0026,VALID,-0.0339617,VALID,18.8655,VALID,64,VALID,0,
2001-07-11, 03:22:00,VALID,917.578,VALID,0,VALID,98.07,VALID,-0.0339617,VALID,18.8399,VALID,64,VALID,0,
2001-07-11, 03:23:00,VALID,917.559,VALID,0,VALID,98.1056,VALID,-0.0169808,VALID,18.8364,VALID,64,VALID,0,
2001-07-11, 03:24:00,VALID,917.547,VALID,0,VALID,98.0979,VALID,-0.0169808,VALID,18.8399,VALID,64,VALID,0,
2001-07-11, 03:25:00,VALID,917.516,VALID,0,VALID,98.0674,VALID,-0.0169808,VALID,18.8297,VALID,64,VALID,0,
2001-07-11, 03:26:00,VALID,917.516,VALID,0,VALID,98.0509,VALID,-0.0339617,VALID,18.8205,VALID,64,VALID,0.0200893,
2001-07-11, 03:27:00,VALID,917.498,VALID,0,VALID,97.9364,VALID,-0.0339617,VALID,18.7917,VALID,64,VALID,0.164063,
2001-07-11, 03:28:00,VALID,917.503,VALID,0,VALID,97.9339,VALID,-0.0679233,VALID,18.7559,VALID,65,VALID,0,
2001-07-11, 03:29:00,VALID,917.49,VALID,0,VALID,98.117,VALID,-0.0679233,VALID,18.7656,VALID,65,VALID,0,
2001-07-11, 03:30:00,VALID,917.456,VALID,0,VALID,98.3408,VALID,-0.0679233,VALID,18.7949,VALID,77,VALID,0.0583882,
2001-07-11, 03:31:00,VALID,917.449,VALID,0,VALID,98.3128,VALID,-0.0509425,VALID,18.8207,VALID,138,VALID,0.452714,